| time (UTC) | temp C | wind direction | speed KPH | gust KPH | rain 1hr cm | rain 24hr cm | rain mn cm | humidity % | barometer mb |
| 20260507211506 | 17 | 325 | 0.0 | 11.3 | 0.00 | 0.30 | 0.00 | 36 | 1003.7 |
| 20260507210007 | 17 | 105 | 4.8 | 16.1 | 0.00 | 0.30 | 0.00 | 35 | 1003.5 |
| 20260507204508 | 17 | 347 | 1.6 | 14.5 | 0.00 | 0.51 | 0.00 | 35 | 1003.7 |
| 20260507203002 | 18 | 15 | 3.2 | 11.3 | 0.00 | 0.51 | 0.00 | 34 | 1003.4 |
| 20260507201501 | 17 | 41 | 1.6 | 12.9 | 0.00 | 0.51 | 0.00 | 34 | 1003.6 |
| 20260507194609 | 17 | 79 | 1.6 | 20.9 | 0.00 | 0.61 | 0.00 | 35 | 1003.8 |
| 20260507193057 | 17 | 243 | 4.8 | 16.1 | 0.00 | 0.61 | 0.00 | 32 | 1003.8 |
| 20260507191615 | 17 | 340 | 1.6 | 8.0 | 0.00 | 0.61 | 0.00 | 37 | 1003.9 |
| 20260507190056 | 17 | 217 | 4.8 | 16.1 | 0.00 | 0.61 | 0.00 | 35 | 1004.1 |
| 20260507184602 | 17 | 251 | 3.2 | 14.5 | 0.00 | 0.61 | 0.00 | 35 | 1004.2 |
| 20260507183052 | 17 | 239 | 4.8 | 16.1 | 0.00 | 0.61 | 0.00 | 36 | 1004.2 |
| 20260507181552 | 17 | 292 | 1.6 | 9.7 | 0.00 | 0.61 | 0.00 | 36 | 1004.4 |
| 20260507180050 | 17 | 229 | 4.8 | 17.7 | 0.00 | 0.61 | 0.00 | 34 | 1004.5 |
| 20260507174548 | 17 | 55 | 0.0 | 14.5 | 0.00 | 0.61 | 0.00 | 43 | 1004.3 |
| 20260507173045 | 17 | 289 | 4.8 | 14.5 | 0.00 | 0.61 | 0.00 | 40 | 1004.4 |
| 20260507171549 | 16 | 219 | 1.6 | 16.1 | 0.00 | 0.61 | 0.00 | 41 | 1004.6 |
| 20260507170042 | 16 | 286 | 3.2 | 16.1 | 0.00 | 0.61 | 0.00 | 46 | 1004.6 |
| 20260507164555 | 16 | 202 | 1.6 | 14.5 | 0.00 | 0.61 | 0.00 | 50 | 1004.8 |
| 20260507163039 | 15 | 250 | 0.0 | 17.7 | 0.00 | 0.61 | 0.00 | 57 | 1005.0 |
| 20260507161539 | 15 | 36 | 1.6 | 14.5 | 0.00 | 0.61 | 0.00 | 57 | 1005.1 |
| 20260507160037 | 15 | 321 | 1.6 | 11.3 | 0.00 | 0.61 | 0.00 | 60 | 1005.2 |
| 20260507154537 | 16 | 230 | 1.6 | 8.0 | 0.00 | 0.61 | 0.00 | 58 | 1005.4 |
| 20260507153038 | 15 | 52 | 1.6 | 8.0 | 0.00 | 0.61 | 0.00 | 57 | 1005.6 |
| 20260507151537 | 15 | 94 | 3.2 | 9.7 | 0.00 | 0.61 | 0.00 | 55 | 1005.6 |
| 20260507150035 | 16 | 234 | 0.0 | 11.3 | 0.00 | 0.61 | 0.00 | 61 | 1005.8 |
| 20260507144533 | 15 | 294 | 3.2 | 9.7 | 0.00 | 0.61 | 0.00 | 55 | 1006.0 |
| 20260507143053 | 15 | 236 | 1.6 | 11.3 | 0.00 | 0.61 | 0.00 | 59 | 1006.0 |
| 20260507141538 | 14 | 307 | 1.6 | 11.3 | 0.00 | 0.61 | 0.00 | 58 | 1005.9 |
| 20260507140026 | 13 | 252 | 1.6 | 6.4 | 0.00 | 0.61 | 0.00 | 61 | 1005.9 |
| 20260507134524 | 13 | 272 | 0.0 | 4.8 | 0.00 | 0.61 | 0.00 | 67 | 1005.8 |
| 20260507133023 | 12 | 34 | 0.0 | 8.0 | 0.00 | 0.61 | 0.00 | 66 | 1006.1 |
| 20260507131522 | 12 | 245 | 0.0 | 9.7 | 0.00 | 0.61 | 0.00 | 69 | 1006.3 |
| 20260507130036 | 12 | 75 | 0.0 | 6.4 | 0.00 | 0.61 | 0.00 | 72 | 1006.4 |
| 20260507124519 | 11 | 48 | 0.0 | 4.8 | 0.00 | 0.61 | 0.00 | 73 | 1006.4 |
| 20260507123018 | 10 | 275 | 0.0 | 6.4 | 0.00 | 0.61 | 0.00 | 77 | 1006.5 |
| 20260507121517 | 10 | 307 | 1.6 | 6.4 | 0.00 | 0.61 | 0.00 | 80 | 1006.6 |
| 20260507120015 | 10 | 37 | 1.6 | 6.4 | 0.00 | 0.61 | 0.00 | 83 | 1006.6 |
| 20260507114520 | 9 | 63 | 0.0 | 1.6 | 0.00 | 0.61 | 0.00 | 85 | 1006.5 |
| 20260507113014 | 9 | 1 | 0.0 | 1.6 | 0.00 | 0.61 | 0.00 | 86 | 1006.4 |
| 20260507111513 | 8 | 21 | 0.0 | 0.0 | 0.00 | 0.61 | 0.00 | 86 | 1006.2 |
| 20260507110014 | 8 | 21 | 0.0 | 1.6 | 0.00 | 0.61 | 0.00 | 85 | 1006.6 |
| 20260507104511 | 8 | 43 | 0.0 | 0.0 | 0.00 | 0.61 | 0.00 | 87 | 1005.9 |
| 20260507103009 | 8 | 295 | 0.0 | 6.4 | 0.00 | 0.61 | 0.00 | 87 | 1005.6 |
| 20260507101509 | 8 | 23 | 0.0 | 4.8 | 0.00 | 0.61 | 0.00 | 88 | 1005.9 |
| 20260507100009 | 8 | 356 | 0.0 | 4.8 | 0.00 | 0.61 | 0.00 | 88 | 1005.5 |
| 20260507094508 | 8 | 40 | 0.0 | 3.2 | 0.00 | 0.61 | 0.00 | 89 | 1005.7 |
| 20260507093005 | 8 | 73 | 0.0 | 3.2 | 0.00 | 0.61 | 0.00 | 89 | 1005.6 |
| 20260507091508 | 8 | 93 | 0.0 | 1.6 | 0.00 | 0.61 | 0.00 | 89 | 1006.0 |
| 20260507090002 | 8 | 264 | 0.0 | 4.8 | 0.00 | 0.61 | 0.00 | 90 | 1005.8 |
| 20260507084500 | 8 | 47 | 0.0 | 4.8 | 0.00 | 0.61 | 0.00 | 90 | 1005.6 |
| 20260507083059 | 8 | 4 | 0.0 | 1.6 | 0.00 | 0.61 | 0.00 | 91 | 1005.2 |
| 20260507081601 | 9 | 93 | 0.0 | 3.2 | 0.00 | 0.61 | 0.00 | 90 | 1005.4 |
| 20260507080112 | 9 | 61 | 0.0 | 3.2 | 0.00 | 0.61 | 0.00 | 90 | 1005.7 |
| 20260507074557 | 10 | 60 | 0.0 | 3.2 | 0.00 | 0.61 | 0.00 | 90 | 1005.7 |
| 20260507073051 | 10 | 298 | 0.0 | 1.6 | 0.00 | 0.61 | 0.00 | 91 | 1005.2 |
| 20260507071550 | 10 | 262 | 0.0 | 1.6 | 0.00 | 0.61 | 0.00 | 91 | 1004.9 |
| 20260507070058 | 10 | 26 | 0.0 | 3.2 | 0.00 | 0.61 | 0.00 | 91 | 1004.9 |
| 20260507064620 | 10 | 43 | 0.0 | 4.8 | 0.00 | 0.61 | 0.00 | 91 | 1004.8 |
| 20260507063052 | 10 | 5 | 0.0 | 1.6 | 0.00 | 0.61 | 0.00 | 92 | 1004.6 |
| 20260507061546 | 10 | 261 | 0.0 | 3.2 | 0.00 | 0.61 | 0.00 | 93 | 1004.7 |
| 20260507060106 | 10 | 59 | 0.0 | 4.8 | 0.00 | 0.61 | 0.00 | 94 | 1004.8 |
| 20260507054547 | 11 | 68 | 0.0 | 4.8 | 0.00 | 0.61 | 0.00 | 95 | 1005.1 |
| 20260507053041 | 11 | 25 | 0.0 | 3.2 | 0.00 | 0.61 | 0.00 | 95 | 1004.8 |
| 20260507051551 | 11 | 300 | 0.0 | 6.4 | 0.00 | 0.61 | 0.00 | 95 | 1005.0 |
| 20260507050044 | 11 | 5 | 0.0 | 6.4 | 0.00 | 0.61 | 0.00 | 95 | 1005.2 |
| 20260507044533 | 12 | 13 | 0.0 | 3.2 | 0.00 | 0.61 | 0.00 | 95 | 1004.8 |
| 20260507043029 | 13 | 264 | 1.6 | 8.0 | 0.00 | 0.61 | 0.00 | 95 | 1004.7 |
| 20260507041528 | 13 | 50 | 0.0 | 6.4 | 0.00 | 0.61 | 0.00 | 96 | 1004.9 |
| 20260507040024 | 14 | 311 | 0.0 | 1.6 | 0.00 | 0.61 | 0.00 | 96 | 1004.7 |
| 20260507034523 | 14 | 270 | 0.0 | 9.7 | 0.00 | 0.61 | 0.61 | 96 | 1004.4 |
| 20260507033021 | 15 | 4 | 1.6 | 16.1 | 0.00 | 0.61 | 0.61 | 96 | 1004.1 |
| 20260507031518 | 15 | 150 | 1.6 | 8.0 | 0.00 | 0.61 | 0.61 | 96 | 1003.8 |
| 20260507030027 | 15 | 210 | 0.0 | 6.4 | 0.00 | 0.61 | 0.61 | 96 | 1003.7 |
| 20260507024524 | 15 | 173 | 0.0 | 4.8 | 0.00 | 0.61 | 0.61 | 96 | 1003.6 |
| 20260507023017 | 15 | 142 | 0.0 | 3.2 | 0.00 | 0.61 | 0.61 | 96 | 1003.8 |
| 20260507021517 | 15 | 259 | 1.6 | 11.3 | 0.00 | 0.61 | 0.61 | 96 | 1003.7 |
| 20260507020015 | 14 | 210 | 0.0 | 8.0 | 0.00 | 0.61 | 0.61 | 96 | 1003.7 |
| 20260507014515 | 14 | 283 | 1.6 | 6.4 | 0.00 | 0.61 | 0.61 | 96 | 1003.9 |
| 20260507013016 | 14 | 222 | 1.6 | 8.0 | 0.00 | 0.61 | 0.61 | 96 | 1004.0 |
| 20260507011514 | 15 | 196 | 0.0 | 8.0 | 0.00 | 0.61 | 0.61 | 96 | 1004.1 |
| 20260507010015 | 15 | 258 | 0.0 | 6.4 | 0.00 | 0.61 | 0.61 | 96 | 1004.1 |
| 20260507004515 | 15 | 255 | 1.6 | 14.5 | 0.00 | 0.61 | 0.61 | 96 | 1004.0 |
| 20260507003011 | 15 | 212 | 1.6 | 8.0 | 0.00 | 0.61 | 0.61 | 96 | 1003.9 |
| 20260507001516 | 15 | 94 | 0.0 | 6.4 | 0.03 | 0.61 | 0.61 | 96 | 1003.8 |
| 20260507000010 | 15 | 120 | 0.0 | 6.4 | 0.05 | 0.61 | 0.61 | 96 | 1003.7 |
| 20260506234510 | 15 | 210 | 0.0 | 6.4 | 0.10 | 0.61 | 0.61 | 96 | 1003.7 |
| 20260506233012 | 15 | 228 | 1.6 | 11.3 | 0.15 | 0.61 | 0.61 | 96 | 1003.7 |
| 20260506231507 | 15 | 287 | 0.0 | 4.8 | 0.15 | 0.58 | 0.58 | 95 | 1003.9 |
| 20260506230014 | 15 | 176 | 0.0 | 6.4 | 0.13 | 0.53 | 0.53 | 95 | 1004.1 |
| 20260506224504 | 15 | 221 | 3.2 | 12.9 | 0.08 | 0.48 | 0.48 | 95 | 1004.1 |
| 20260506223001 | 15 | 235 | 1.6 | 12.9 | 0.08 | 0.46 | 0.46 | 95 | 1004.2 |
| 20260506221631 | 15 | 146 | 0.0 | 12.9 | 0.08 | 0.43 | 0.43 | 95 | 1004.1 |
| 20260506220132 | 15 | 267 | 1.6 | 11.3 | 0.10 | 0.41 | 0.41 | 94 | 1004.3 |
| 20260506214600 | 15 | 234 | 0.0 | 4.8 | 0.13 | 0.41 | 0.41 | 94 | 1004.4 |
| 20260506213109 | 15 | 189 | 0.0 | 3.2 | 0.15 | 0.38 | 0.38 | 94 | 1004.8 |